Date,TemperatureHighF,TemperatureAvgF,TemperatureLowF,DewpointHighF,DewpointAvgF,DewpointLowF,HumidityHigh,HumidityAvg,HumidityLow,PressureMaxIn,PressureMinIn,WindSpeedMaxMPH,WindSpeedAvgMPH,GustSpeedMaxMPH,PrecipitationSumIn
2012-1-1,45.7,39.0,30.7,37.2,22.4,11.7,93,53,34,30.50,29.87,26,10,26,0.05
2012-1-2,36.6,28.9,22.4,14.0,9.8,3.8,63,46,26,30.62,30.49,21,7,21,0.00
2012-1-3,49.2,34.6,20.5,25.9,16.3,7.4,62,48,34,30.50,29.98,24,8,24,0.00
2012-1-4,53.1,43.4,35.5,31.7,27.7,24.6,75,55,35,30.21,29.99,14,4,14,0.00
2012-1-5,66.2,50.4,36.2,37.0,33.3,28.9,76,54,32,30.10,29.74,18,6,18,0.00
2012-1-6,59.0,50.1,43.9,36.9,32.6,26.8,61,51,41,29.97,29.67,20,7,20,0.00
2012-1-7,49.2,40.4,28.3,27.7,24.9,21.7,77,55,37,30.17,29.96,12,1,12,0.00
2012-1-8,46.7,38.2,32.1,29.9,27.1,25.1,77,65,46,30.27,30.17,10,1,10,0.00
2012-1-9,52.6,38.1,25.0,32.2,27.4,22.3,91,68,43,30.25,30.02,14,2,14,0.00
2012-1-10,56.9,43.4,31.7,32.5,27.0,24.3,78,55,32,30.03,29.66,14,2,14,0.00
2012-1-11,47.7,36.3,23.1,33.8,27.2,18.9,89,70,53,29.89,29.58,26,8,26,0.00
2012-1-12,24.0,19.7,15.4,18.9,11.0,6.4,81,68,63,30.02,29.87,29,11,29,0.00
2012-1-13,33.2,22.4,11.0,16.4,8.5,2.5,74,56,39,30.14,29.94,17,4,17,0.00
2012-1-14,44.2,36.3,29.7,27.5,22.9,15.7,67,58,49,30.18,29.83,24,7,24,0.00
2012-1-15,64.4,45.9,31.0,34.8,27.3,22.5,73,51,22,30.16,29.73,31,13,31,0.00
2012-1-16,65.0,51.5,38.3,48.2,39.0,30.8,86,65,31,29.72,29.53,23,9,23,0.04
2012-1-17,38.6,24.7,16.2,32.0,16.5,10.5,83,71,55,30.38,29.64,23,8,23,0.00
2012-1-18,42.1,26.7,14.2,20.4,14.8,9.5,84,63,36,30.35,29.82,24,7,24,0.00
2012-1-19,31.7,24.8,16.5,21.3,12.8,4.9,78,60,46,30.07,29.80,16,5,16,0.00
2012-1-20,27.5,19.9,13.5,19.6,11.8,5.2,77,71,61,30.14,29.81,16,6,16,0.00
2012-1-21,27.8,21.0,14.3,24.6,14.2,7.2,92,75,69,30.18,29.74,20,7,20,0.00
2012-1-22,57.4,43.7,27.7,48.5,38.9,24.1,96,84,69,29.74,29.28,26,11,26,0.06
2012-1-23,48.4,38.9,32.3,32.9,28.8,25.3,87,68,49,30.02,29.51,28,6,28,0.00
2012-1-24,48.8,37.8,28.2,31.4,28.1,24.3,85,69,49,30.18,30.01,17,5,17,0.00
2012-1-25,51.5,43.2,35.8,41.0,33.7,28.1,89,69,60,30.14,29.87,13,2,13,0.00
2012-1-26,54.6,42.4,33.2,37.6,32.2,27.0,96,71,37,29.89,29.74,24,5,24,0.00
2012-1-27,40.6,34.7,28.4,33.1,28.6,23.3,89,78,67,30.16,29.78,21,5,21,0.00
2012-1-28,47.7,36.2,24.5,24.8,19.0,13.9,79,53,27,30.33,30.16,21,5,21,0.00
2012-1-29,51.4,41.0,29.9,30.1,18.5,13.2,54,41,27,30.24,30.00,14,4,14,0.00
2012-1-30,65.0,52.7,41.9,45.0,36.3,30.5,68,54,37,30.00,29.75,26,11,26,0.00
2012-1-31,65.5,55.9,44.1,51.5,44.1,31.9,85,66,40,29.99,29.72,23,8,23,0.00
2012-2-1,64.4,49.7,36.2,39.3,31.9,27.9,81,54,30,30.10,29.99,6,1,6,0.00
2012-2-2,62.1,52.1,39.3,34.1,30.2,28.0,65,44,29,30.20,30.06,18,4,18,0.00
2012-2-3,52.5,44.7,41.3,42.1,38.1,29.3,95,81,42,30.12,29.91,25,8,25,1.12
2012-2-4,43.0,39.1,32.9,42.5,38.1,31.8,100,96,95,30.22,29.91,12,4,12,0.19
2012-2-5,47.2,37.0,29.8,35.0,31.2,27.1,96,81,54,30.36,30.21,15,4,15,0.03
2012-2-6,52.7,38.1,23.5,35.1,29.2,22.0,95,73,46,30.28,30.13,12,1,12,0.01
2012-2-7,40.0,37.5,34.4,35.9,31.3,28.4,90,79,64,30.38,30.14,12,3,12,0.00
2012-2-8,36.5,33.2,30.8,30.4,27.8,25.8,91,81,68,30.46,30.33,10,2,10,0.00
2012-2-9,39.1,35.1,30.6,33.4,28.4,23.6,85,76,68,30.33,30.04,13,4,13,0.00
2012-2-10,38.1,27.0,12.6,34.2,16.8,1.6,89,66,43,30.49,29.98,24,11,24,0.00
2012-2-11,27.0,16.8,8.0,6.2,2.5,-0.5,72,54,36,30.74,30.49,17,6,17,0.00
2012-2-12,35.9,24.4,8.0,11.3,5.2,1.9,81,48,25,30.65,30.09,17,5,17,0.00
2012-2-13,34.2,31.0,27.9,32.2,27.9,10.3,96,90,37,30.09,29.72,24,8,24,0.02
2012-2-14,46.2,37.6,29.4,35.6,32.6,28.1,96,83,62,29.88,29.75,13,4,13,0.08
2012-2-15,49.9,41.8,37.3,46.3,39.4,33.5,96,91,84,30.02,29.79,12,3,12,0.12
2012-2-16,42.6,33.9,30.2,36.4,31.8,28.9,100,92,70,30.25,30.02,12,3,12,0.01
2012-2-17,60.1,51.6,39.3,38.5,34.5,27.7,64,53,42,30.11,29.98,15,4,15,0.01
2012-2-18,45.6,37.9,30.5,28.2,23.2,20.9,72,56,39,30.19,30.06,14,5,14,0.00
2012-2-19,49.9,39.8,29.2,29.4,26.1,22.8,79,59,41,30.09,29.95,14,4,14,0.00
2012-2-20,49.1,42.2,36.2,41.2,33.8,25.9,95,73,59,29.98,29.55,29,11,29,0.40
2012-2-21,54.6,43.9,34.8,38.9,32.7,27.9,95,68,40,29.88,29.58,20,6,20,0.01
2012-2-22,63.2,50.6,40.9,43.2,33.9,27.3,73,53,38,29.67,29.32,16,4,16,0.01
2012-2-23,63.9,49.9,37.5,45.6,38.5,29.0,79,65,49,29.70,29.11,25,9,25,0.00
2012-2-24,45.4,38.0,31.7,31.6,26.3,20.4,89,65,38,30.19,29.70,26,8,26,0.00
2012-2-25,45.8,36.5,24.6,29.1,23.3,15.7,92,60,42,30.32,29.88,22,7,22,0.00
2012-2-26,61.2,51.3,41.6,34.1,29.0,23.6,54,42,34,30.13,29.82,30,10,30,0.00
2012-2-27,47.2,39.2,29.6,27.0,21.6,16.5,70,50,35,30.44,30.12,14,5,14,0.00
2012-2-28,62.2,51.3,40.4,58.3,40.9,21.5,93,69,46,30.24,29.35,32,11,32,0.57
2012-2-29,59.6,49.4,41.7,49.7,32.5,29.0,70,52,40,29.82,29.43,26,8,26,0.11
2012-3-1,70.3,51.0,34.2,38.9,33.7,28.3,81,55,29,29.82,29.42,23,6,23,0.00
2012-3-2,45.6,44.8,44.0,35.4,35.1,34.8,70,69,67,29.49,29.47,16,9,16,0.00
2012-3-4,62.0,50.4,37.7,38.6,30.4,24.3,59,47,38,30.13,29.76,26,13,26,0.00
2012-3-5,57.9,44.4,27.1,36.3,27.0,22.4,84,54,31,30.29,29.89,24,8,24,0.00
2012-3-6,70.5,63.3,55.8,50.1,43.4,35.1,60,49,34,29.88,29.66,35,19,35,0.00
2012-3-7,68.2,60.1,42.3,56.6,50.1,34.9,84,70,60,29.95,29.66,33,16,33,0.03
2012-3-8,48.4,38.9,32.9,35.0,27.4,21.8,93,66,38,30.45,29.94,22,6,22,0.40
2012-3-9,63.6,48.4,33.4,31.5,25.5,19.5,64,42,25,30.51,30.33,10,3,10,0.00
2012-3-10,64.2,53.0,39.4,37.2,32.0,27.2,62,45,34,30.33,30.06,20,7,20,0.00
2012-3-11,53.3,48.9,44.1,50.7,43.1,31.2,100,83,43,30.05,29.74,14,5,14,0.60
2012-3-12,75.2,60.3,49.7,53.6,49.2,44.3,96,71,38,29.88,29.68,18,7,18,0.17
2012-3-13,79.3,65.6,50.1,59.2,52.6,45.8,87,65,41,29.95,29.78,23,7,23,0.00
2012-3-14,80.3,70.5,62.9,65.8,62.2,57.8,89,76,59,29.87,29.75,25,12,25,0.00
2012-3-15,77.0,69.7,63.0,65.7,62.9,59.7,90,79,67,29.92,29.83,20,7,20,0.00
2012-3-16,81.0,71.0,64.0,66.0,63.2,61.0,91,78,55,29.88,29.75,26,10,26,0.00
2012-3-17,75.7,69.6,63.8,65.1,62.1,59.5,86,77,67,29.83,29.73,25,11,25,0.00
2012-3-18,75.5,69.9,65.2,63.7,60.7,58.1,80,73,67,29.77,29.68,26,11,26,0.00
2012-3-19,71.3,63.0,56.0,62.0,58.1,54.9,97,85,67,29.70,29.57,24,7,24,1.32
2012-3-20,57.9,56.5,55.3,57.0,55.5,54.2,100,96,96,29.80,29.62,22,4,22,0.50
2012-3-21,62.9,58.3,53.0,60.1,57.0,51.1,98,95,88,29.80,29.62,20,5,20,0.31
2012-3-22,65.0,53.8,48.0,53.0,49.4,46.8,100,86,53,29.88,29.74,32,5,32,0.30
2012-3-23,60.4,53.1,47.0,52.6,49.1,45.4,98,87,66,29.85,29.75,10,2,10,0.03
2012-3-24,76.2,61.9,49.0,54.4,49.6,45.9,90,67,42,29.92,29.83,15,3,15,0.00
2012-3-25,81.5,66.9,50.2,53.5,49.3,46.6,90,57,31,30.02,29.90,10,1,10,0.00
2012-3-26,80.7,69.6,59.0,58.4,54.6,50.9,81,61,41,29.98,29.76,22,6,22,0.00
2012-3-27,75.9,68.8,63.8,62.9,59.3,55.6,89,72,59,29.88,29.75,20,6,20,0.10
2012-3-28,80.2,69.9,57.1,63.7,59.5,53.3,95,71,51,29.90,29.74,16,3,16,0.01
2012-3-29,80.5,69.2,59.6,65.1,58.5,54.6,85,70,51,29.80,29.57,26,9,26,0.00
2012-3-30,78.4,69.2,60.7,62.5,57.6,48.3,94,69,37,29.72,29.59,20,2,20,0.00
2012-3-31,84.7,71.9,59.3,62.6,58.4,53.6,87,65,40,29.73,29.59,12,4,12,0.00
2012-4-1,86.3,75.1,63.9,69.6,64.9,60.6,91,72,49,29.59,29.35,22,8,22,0.00
2012-4-2,87.7,76.9,69.2,66.4,61.9,56.6,83,62,36,29.60,29.39,21,8,21,0.00
2012-4-3,73.2,65.6,59.0,61.0,56.7,54.1,85,74,62,29.78,29.59,12,1,12,0.00
2012-4-4,64.0,58.5,53.4,56.0,53.4,51.3,94,84,73,29.74,29.61,12,1,12,0.04
2012-4-5,63.0,53.1,45.4,52.8,46.0,38.5,95,79,43,29.98,29.65,15,4,15,0.00
2012-4-6,65.5,54.2,42.3,43.1,39.9,36.3,94,62,37,30.10,29.94,15,4,15,0.00
2012-4-7,61.3,55.4,48.7,53.2,45.4,38.2,85,70,58,30.26,29.92,16,4,16,0.00
2012-4-8,61.6,46.2,36.8,42.3,35.8,32.8,89,69,36,30.33,30.26,13,1,13,0.00
2012-4-10,64.5,54.8,44.6,36.5,30.7,24.6,62,40,30,30.18,30.06,12,2,12,0.00
2012-4-11,60.4,50.1,40.6,34.6,27.7,22.9,63,43,28,30.28,30.11,14,2,14,0.00
2012-4-12,54.1,49.0,44.4,46.1,37.9,29.1,86,66,50,30.12,29.86,20,6,20,0.05
2012-4-13,74.7,61.7,52.5,64.0,55.8,43.8,91,81,67,29.87,29.69,23,8,23,0.04
2012-4-14,74.0,68.2,61.1,65.8,62.4,59.5,96,83,66,29.76,29.42,28,9,28,0.07
2012-4-15,72.8,68.4,63.2,63.7,60.5,58.5,86,76,72,29.54,29.35,255,8,255,0.04
2012-4-16,68.3,60.5,47.6,59.6,46.3,39.0,76,61,38,30.15,29.54,255,2,255,0.00
2012-4-17,72.5,60.3,48.1,49.3,45.7,41.8,80,60,40,30.22,30.05,16,4,16,0.00
2012-4-18,77.2,65.4,55.7,55.4,51.2,45.2,76,61,41,30.05,29.80,20,8,20,0.00
2012-4-19,77.2,65.7,50.5,59.3,52.3,45.5,83,63,43,29.80,29.56,32,10,32,0.00
2012-4-20,60.5,50.7,45.4,45.4,39.0,33.4,87,66,39,30.00,29.73,20,7,20,0.00
2012-4-21,70.7,54.5,38.9,50.1,41.2,34.3,88,64,39,30.00,29.82,14,2,14,0.01
2012-4-22,58.5,52.2,45.0,47.2,40.5,37.1,82,65,51,30.15,29.88,25,6,25,0.00
2012-4-23,63.1,45.9,37.3,44.4,39.2,35.4,100,80,45,30.17,30.08,12,2,12,0.00
2012-4-24,87.1,79.0,68.4,59.7,57.0,50.1,62,48,36,29.69,29.47,17,5,17,0.00
2012-4-25,94.2,79.0,65.8,66.4,59.4,49.9,74,53,33,29.60,29.42,18,5,18,0.00
2012-4-26,80.7,71.8,61.8,59.3,52.8,47.3,71,52,39,29.86,29.60,18,3,18,0.00
2012-4-27,66.0,60.3,55.5,55.8,49.1,45.8,92,67,55,29.86,29.52,32,9,32,0.10
2012-4-28,70.1,62.5,56.5,58.1,55.1,52.4,93,78,61,29.90,29.56,115,4,115,0.22
2012-4-29,64.1,56.3,52.3,61.1,55.0,51.1,98,95,89,29.97,29.81,12,2,12,0.88
2012-4-30,71.0,60.2,54.3,61.4,56.7,53.2,97,89,69,29.92,29.77,14,2,14,0.01
2012-5-1,79.5,68.8,59.5,71.0,64.3,58.9,98,86,71,29.79,29.57,21,7,21,0.66
2012-5-2,81.4,75.5,70.0,70.7,67.5,64.0,82,76,68,29.70,29.56,26,10,26,0.00
2012-5-3,83.2,75.9,69.6,72.9,69.0,64.9,88,80,68,29.78,29.65,23,8,23,0.00
2012-5-4,85.7,77.8,66.0,75.0,70.9,63.0,92,80,65,29.76,29.64,20,6,20,0.02
2012-5-5,88.5,78.6,67.7,73.0,69.9,66.5,97,76,58,29.73,29.64,20,5,20,0.00
2012-5-6,82.0,72.0,62.4,74.3,67.8,60.7,97,87,73,29.81,29.65,20,4,20,1.99
2012-5-7,73.2,65.0,59.0,64.1,55.1,47.5,97,73,44,29.96,29.76,20,6,20,0.18
2012-5-8,75.2,63.0,50.5,51.4,46.8,41.3,87,59,35,29.99,29.87,12,1,12,0.00
2012-5-9,71.0,59.4,46.3,51.3,45.9,41.5,90,63,42,30.01,29.86,10,2,10,0.00
2012-5-10,77.1,65.9,51.5,57.5,52.2,46.4,83,63,48,29.88,29.76,16,5,16,0.00
2012-5-11,81.2,69.5,58.5,58.8,56.0,53.4,84,64,44,30.00,29.81,10,3,10,0.00
2012-5-12,66.6,61.7,58.5,56.6,52.7,45.6,84,72,60,30.15,30.00,15,4,15,0.00
2012-5-13,74.0,64.8,56.3,57.9,53.5,51.4,85,68,50,30.16,30.04,13,2,13,0.00
2012-5-14,80.0,66.8,51.4,58.9,50.5,44.9,96,60,33,30.08,29.93,9,1,9,0.00
2012-5-15,85.5,72.4,57.6,58.2,53.8,47.1,75,54,37,29.96,29.83,10,2,10,0.00
2012-5-16,80.3,69.8,58.1,56.1,47.1,41.8,67,46,28,29.99,29.87,12,2,12,0.00
2012-5-17,83.5,71.5,58.9,60.4,53.9,47.1,70,55,44,29.93,29.76,17,6,17,0.00
2012-5-18,84.3,74.9,63.5,62.9,57.9,52.8,72,56,43,29.80,29.67,21,8,21,0.00
2012-5-19,84.0,75.7,66.1,63.7,59.6,57.1,74,58,43,29.78,29.68,36,10,36,0.00
2012-5-20,78.6,69.2,61.0,62.1,56.9,52.3,81,66,49,30.09,29.74,20,4,20,0.00
2012-5-21,75.5,64.5,52.4,52.6,46.3,41.6,75,53,36,30.18,30.01,12,2,12,0.00
2012-5-22,78.7,68.2,54.3,52.3,48.2,44.5,70,50,35,30.01,29.67,17,5,17,0.00
2012-5-23,87.5,75.9,62.4,65.7,58.3,48.9,67,55,46,29.67,29.38,30,11,30,0.00
2012-5-24,84.7,75.8,68.5,70.7,66.6,62.8,97,74,61,29.64,29.29,22,8,22,0.66
2012-5-25,87.2,73.8,62.6,74.6,67.7,61.4,97,83,62,29.84,29.64,20,5,20,0.79
2012-5-26,87.3,80.3,73.0,75.9,71.3,67.2,86,74,65,29.81,29.74,21,8,21,0.00
2012-5-27,87.8,80.2,72.6,68.2,64.1,57.8,81,60,41,29.78,29.60,25,11,25,0.00
2012-5-28,91.4,81.4,73.3,70.2,62.0,47.2,66,53,35,29.74,29.57,20,6,20,0.00
2012-5-29,85.9,75.5,65.1,61.0,54.8,48.0,69,50,37,29.82,29.71,12,3,12,0.00
2012-5-30,80.8,69.6,56.3,60.4,56.8,49.7,94,66,44,29.90,29.65,17,3,17,0.39
2012-5-31,65.5,59.8,54.1,59.4,53.5,47.8,94,81,59,29.92,29.66,23,7,23,0.01
2012-6-1,67.7,57.4,46.1,50.7,48.4,44.5,95,74,50,29.98,29.83,12,2,12,0.00
2012-6-2,83.7,67.2,50.6,60.7,54.5,47.1,92,67,41,29.84,29.70,12,1,12,0.00
2012-6-3,78.7,70.7,63.9,70.1,63.6,56.4,93,78,70,29.76,29.67,9,2,9,0.00
2012-6-4,91.3,78.5,65.4,72.2,65.4,58.5,98,69,35,29.76,29.65,15,4,15,0.01
2012-6-5,85.3,74.7,63.0,64.7,59.9,55.1,92,63,36,29.85,29.75,13,2,13,0.00
2012-6-6,84.8,74.9,64.6,62.0,58.1,55.0,73,57,43,29.91,29.78,17,2,17,0.00
2012-6-7,83.8,73.7,64.1,58.7,54.8,51.8,65,53,37,30.01,29.91,12,3,12,0.00
2012-6-8,85.2,74.3,60.0,58.7,55.9,53.2,82,54,38,29.98,29.77,14,3,14,0.00
2012-6-9,88.4,77.4,64.3,65.3,59.8,54.1,73,56,43,29.79,29.58,26,7,26,0.00
2012-6-10,89.8,80.7,71.0,70.0,66.3,61.2,75,62,48,29.64,29.56,24,9,24,0.00
2012-6-11,85.3,74.1,63.8,70.2,64.5,55.1,97,74,42,29.93,29.60,20,3,20,0.77
2012-6-12,83.0,71.5,58.4,59.3,55.3,51.1,93,60,38,30.07,29.93,13,2,13,0.00
2012-6-13,85.5,73.9,61.0,65.2,57.5,50.8,72,57,41,30.00,29.79,16,6,16,0.00
2012-6-14,89.0,78.8,67.5,68.5,64.3,58.5,78,62,48,29.84,29.67,21,9,21,0.00
2012-6-15,84.3,77.3,68.3,67.6,64.8,58.3,90,66,49,29.82,29.69,20,4,20,0.00
2012-6-16,89.2,80.2,72.6,72.1,67.7,64.0,88,67,48,29.89,29.79,17,4,17,0.00
2012-6-17,92.5,81.3,69.5,73.7,69.9,66.8,93,71,47,29.87,29.57,20,6,20,0.00
2012-6-18,94.5,85.0,76.3,71.7,69.1,64.7,78,60,46,29.61,29.52,26,13,26,0.00
2012-6-19,89.0,82.3,74.5,71.0,68.2,65.0,81,63,50,29.71,29.61,31,12,31,0.00
2012-6-20,89.7,82.3,75.3,71.0,68.6,66.7,78,64,51,29.78,29.70,29,12,29,0.00
2012-6-21,83.3,73.0,66.6,69.4,64.3,58.5,98,77,46,29.98,29.78,26,3,26,1.47
2012-6-22,87.4,75.1,60.6,64.3,60.8,57.5,91,64,41,29.96,29.81,13,1,13,0.00
2012-6-23,90.5,77.0,68.4,75.9,65.2,57.1,77,67,56,29.89,29.70,20,5,20,0.00
2012-6-24,98.5,87.5,77.0,73.9,70.4,66.0,73,58,42,29.79,29.71,18,5,18,0.00
2012-6-25,99.0,86.0,75.6,79.5,72.3,64.8,83,65,44,29.78,29.71,14,2,14,0.00
2012-6-26,92.8,81.9,70.3,72.0,64.0,52.4,66,55,47,29.79,29.64,20,6,20,0.00
2012-6-27,100.5,88.2,75.5,75.1,69.6,61.6,64,55,43,29.73,29.62,23,9,23,0.00
2012-6-28,104.3,91.3,76.2,72.9,67.4,65.0,71,47,30,29.80,29.70,18,5,18,0.00
2012-6-29,101.5,90.3,78.7,68.5,65.9,63.8,62,46,32,29.78,29.62,18,6,18,0.00
2012-6-30,99.6,89.4,77.8,71.4,67.1,62.9,66,49,37,29.78,29.64,20,5,20,0.00
2012-7-1,97.6,85.4,76.4,70.3,66.2,62.4,69,54,34,29.83,29.71,21,4,21,0.00
2012-7-3,98.7,94.0,87.1,72.8,69.8,67.3,52,46,41,29.76,29.68,17,6,17,0.00
2012-7-4,100.1,89.8,79.7,70.2,64.7,60.1,55,44,33,29.79,29.70,17,6,17,0.00
2012-7-5,100.4,90.1,78.9,70.0,65.1,62.6,61,45,30,29.86,29.75,20,4,20,0.00
2012-7-6,103.0,91.4,78.4,69.3,65.4,61.8,64,44,28,29.87,29.77,17,2,17,0.00
2012-7-7,107.0,91.1,76.0,69.7,65.7,60.3,70,46,23,29.88,29.77,26,2,26,0.00
2012-7-8,90.2,81.2,75.4,74.0,69.9,66.2,80,69,51,29.91,29.83,14,2,14,0.00
2012-7-9,87.6,79.4,72.3,72.2,66.7,61.1,88,67,42,29.93,29.87,12,2,12,0.00
2012-7-10,92.3,80.4,67.5,66.8,63.5,58.2,88,59,39,29.94,29.85,15,2,15,0.00
2012-7-11,95.3,81.8,70.2,70.0,64.3,58.3,81,57,36,29.93,29.83,13,1,13,0.00
2012-7-12,96.5,83.8,74.4,68.2,64.6,60.6,67,53,38,29.88,29.81,21,3,21,0.00
2012-7-13,87.8,79.8,72.7,72.5,66.3,61.8,90,64,43,29.94,29.82,12,2,12,0.04
2012-7-14,98.5,84.3,68.1,69.7,65.8,61.5,92,58,32,29.92,29.80,13,2,13,0.00
2012-7-15,96.7,85.1,71.4,67.4,63.7,57.6,78,51,29,29.93,29.80,14,3,14,0.00
2012-7-16,94.8,85.3,74.4,71.2,67.5,64.7,77,57,40,29.85,29.70,15,4,15,0.00
2012-7-17,99.8,88.9,77.6,69.9,67.0,64.9,70,50,34,29.76,29.65,18,5,18,0.00
2012-7-18,105.1,92.9,80.9,70.4,66.7,64.4,61,44,29,29.79,29.65,21,5,21,0.00
2012-7-19,103.2,84.9,74.1,72.7,67.2,61.4,83,60,29,29.86,29.71,13,2,13,0.07
2012-7-20,96.3,84.7,73.6,70.3,64.8,56.0,78,54,29,29.94,29.84,12,2,12,0.00
2012-7-21,98.8,84.4,69.5,68.9,65.4,61.2,85,57,30,29.96,29.84,12,2,12,0.00
2012-7-22,101.8,89.8,76.4,70.0,63.8,60.5,59,44,27,29.92,29.83,15,4,15,0.00
2012-7-23,104.5,91.9,79.2,72.4,66.2,61.2,59,44,30,29.91,29.79,14,4,14,0.00
2012-7-24,101.3,91.6,81.2,71.1,68.0,66.2,63,47,34,29.84,29.67,16,5,16,0.00
2012-7-25,104.5,93.0,82.6,71.1,68.0,65.7,60,45,31,29.69,29.50,20,7,20,0.00
2012-7-26,95.9,82.0,72.1,74.0,69.0,60.3,96,69,33,29.76,29.56,15,1,15,0.12
2012-7-27,93.3,82.8,71.6,65.3,62.4,58.7,76,52,34,29.93,29.74,14,3,14,0.00
2012-7-28,97.1,82.8,70.3,66.5,63.0,58.4,74,54,35,30.00,29.84,18,3,18,0.00
2012-7-29,102.2,91.4,75.8,69.2,64.9,58.3,58,43,34,29.84,29.67,255,2,20,0.00
2012-7-30,101.1,101.1,101.1,69.2,69.2,69.2,36,36,36,29.84,29.67,255,0,0,0.00
2012-8-4,81.1,68.8,63.1,63.1,61.2,59.8,91,78,49,30.06,29.97,3,0,7,0.35
2012-8-5,90.3,82.6,69.4,64.0,57.3,51.9,74,43,32,30.06,29.89,15,4,15,0.35
2012-8-6,97.4,81.4,63.4,60.8,56.8,54.2,75,47,25,30.01,29.84,9,2,9,0.00
2012-8-7,103.2,88.7,74.4,61.4,56.8,54.3,52,36,21,29.85,29.75,12,2,12,0.00
2012-8-8,101.3,83.9,69.6,67.5,62.2,49.2,84,50,21,29.84,29.64,28,3,28,0.22
2012-8-9,83.4,75.9,67.2,69.9,64.4,60.0,89,68,52,29.83,29.73,20,5,20,0.00
2012-8-10,82.2,72.4,62.1,60.9,55.9,51.6,83,58,38,29.94,29.83,15,4,15,0.00
2012-8-11,87.3,74.2,59.1,58.7,55.5,53.2,85,55,32,29.96,29.79,10,2,10,0.00
2012-8-12,96.2,80.6,67.6,64.4,59.8,54.4,73,51,33,29.83,29.63,17,5,17,0.00
2012-8-13,74.4,68.8,62.0,62.1,60.1,57.3,86,74,63,29.92,29.76,16,5,16,0.00
2012-8-14,74.2,64.6,59.5,63.6,58.9,56.5,93,83,59,29.97,29.82,12,2,12,0.04
2012-8-15,93.5,76.8,59.7,69.8,63.7,56.7,93,67,44,29.83,29.64,18,5,18,0.01
2012-8-16,83.3,72.6,63.2,68.2,58.9,51.8,76,63,51,29.95,29.67,13,4,16,0.00
2012-8-17,83.3,69.7,55.4,55.4,50.1,43.5,86,54,26,30.00,29.86,14,2,14,0.00
2012-8-18,84.4,70.1,56.9,55.4,47.8,44.0,66,47,27,29.92,29.73,13,2,13,0.00
2012-8-19,81.4,71.4,61.9,54.7,50.4,45.7,71,49,32,29.92,29.82,13,3,13,0.00
2012-8-20,88.8,73.3,55.3,55.0,50.7,47.8,82,49,27,29.93,29.81,9,1,9,0.00
2012-8-21,95.6,80.0,61.7,53.6,49.7,46.1,60,37,22,29.91,29.83,12,2,12,0.00
2012-8-22,95.6,81.9,65.4,63.7,52.5,47.4,61,38,23,29.93,29.81,23,3,23,0.00
2012-8-23,93.3,82.6,71.1,57.5,53.2,50.5,54,38,25,29.90,29.77,21,7,21,0.00
2012-8-24,84.8,77.0,71.9,66.3,56.3,50.9,59,49,36,29.85,29.76,17,6,17,0.00
2012-8-25,74.9,74.9,74.9,56.6,56.6,56.6,53,53,53,29.83,29.83,12,12,12,0.00
2012-8-26,83.6,74.8,69.1,72.2,69.2,56.6,97,84,53,29.90,29.74,20,4,20,0.04
2012-8-27,93.6,78.7,66.9,71.6,65.1,58.5,98,68,34,30.02,29.90,10,2,10,0.01
2012-8-28,95.7,81.6,69.2,64.0,60.2,58.1,70,51,30,30.02,29.84,9,2,9,0.00
2012-8-29,97.8,83.3,68.8,65.0,61.3,58.9,73,50,32,29.89,29.76,13,2,13,0.00
2012-8-30,98.7,84.6,71.4,61.6,57.5,54.4,60,42,25,29.85,29.73,12,3,12,0.00
2012-8-31,83.4,73.8,69.2,70.5,67.6,57.2,98,83,41,29.81,29.67,21,6,21,2.15
2012-9-1,80.8,73.6,70.2,72.3,70.2,67.9,98,90,73,29.81,29.65,23,10,23,2.23
2012-9-2,92.2,77.7,64.6,71.7,67.7,63.1,95,74,47,29.83,29.73,4,0,4,0.00
2012-9-3,96.0,82.7,70.8,74.5,70.9,64.9,93,70,48,29.79,29.66,21,3,21,0.00
2012-9-4,95.1,83.2,73.3,74.6,71.5,64.9,87,69,48,29.76,29.62,16,4,16,0.00
2012-9-5,96.4,83.8,72.1,71.4,67.8,60.3,78,60,42,29.75,29.61,9,2,9,0.00
2012-9-6,91.5,81.3,70.3,70.1,63.9,57.7,66,56,47,29.84,29.67,13,4,13,0.00
2012-9-7,82.1,72.5,59.0,69.5,64.5,55.8,93,77,61,29.93,29.63,25,7,25,0.39
2012-9-8,77.5,65.1,51.5,56.1,51.6,49.3,93,65,39,30.06,29.89,13,2,13,0.01
2012-9-9,76.0,65.8,56.2,53.0,50.2,46.6,71,58,43,30.07,29.87,13,3,13,0.00
2012-9-10,79.6,68.2,56.3,57.2,53.7,50.3,81,61,42,30.07,29.89,18,5,18,0.00
2012-9-11,88.5,75.0,61.1,60.8,57.0,54.2,79,56,34,29.93,29.82,25,8,25,0.00
2012-9-12,85.7,76.3,67.6,66.7,61.4,58.0,75,61,49,29.93,29.84,21,9,21,0.00
2012-9-13,75.5,58.7,54.1,61.1,52.1,46.5,95,81,50,30.28,29.91,18,6,18,0.44
2012-9-14,72.6,60.2,52.6,53.4,50.3,45.6,97,74,39,30.28,30.18,13,2,13,0.05
2012-9-15,74.0,64.4,56.0,62.5,56.6,49.0,84,76,64,30.19,29.99,12,2,12,0.00
2012-9-16,73.6,66.2,59.4,63.7,61.0,56.8,94,84,69,29.99,29.83,9,2,9,0.00
2012-9-17,80.0,66.8,54.2,65.6,60.3,50.0,96,81,54,29.91,29.71,17,3,17,0.00
2012-9-18,71.0,57.9,46.5,49.9,44.3,37.6,95,65,33,30.02,29.90,13,2,13,0.01
2012-9-19,82.4,68.2,55.5,56.6,51.2,43.7,70,56,40,29.93,29.73,20,8,20,0.00
2012-9-20,76.7,67.1,51.8,56.6,44.8,39.7,81,47,28,29.93,29.82,13,2,13,0.00
2012-9-21,81.0,68.1,58.6,54.5,45.0,38.9,74,45,26,29.84,29.70,18,4,18,0.00
2012-9-22,66.3,55.5,43.0,43.1,35.4,28.4,80,50,24,30.20,29.83,10,1,16,0.00
2012-9-23,69.9,65.0,57.6,41.4,39.9,36.5,54,40,33,30.23,30.12,3,0,7,0.00
2012-9-27,72.4,66.4,59.0,61.5,57.8,53.8,96,75,57,30.06,29.97,3,0,10,0.00
2012-9-28,71.7,60.6,49.8,60.1,50.9,46.1,91,72,52,30.07,29.98,5,0,9,0.00
2012-9-29,61.6,61.6,61.6,52.9,52.9,52.9,73,73,73,30.06,30.06,6,6,0,0.00
2012-9-30,69.5,61.7,58.0,54.5,50.5,48.4,72,67,57,29.78,29.71,2,0,6,0.00
2012-10-1,76.3,76.3,76.2,49.4,49.1,48.8,39,38,38,29.69,29.69,7,6,0,0.00
2012-10-2,75.1,67.0,55.8,52.7,48.8,45.6,73,53,39,29.83,29.74,12,1,13,0.00
2012-10-3,77.4,64.1,49.6,52.1,47.8,44.6,85,58,35,29.86,29.77,16,3,16,0.00
2012-10-4,65.1,56.4,49.3,53.9,46.3,39.3,83,69,61,30.16,29.84,17,5,17,0.00
2012-10-5,50.6,46.2,36.1,44.9,36.6,32.8,88,70,53,30.23,30.14,14,4,14,0.00
2012-10-6,45.3,41.1,35.5,35.7,30.6,26.2,91,67,50,30.29,30.20,16,2,16,0.00
2012-10-7,57.9,44.7,30.6,33.1,30.0,27.6,90,60,34,30.26,30.05,6,2,7,0.00
2012-10-8,61.3,50.2,38.5,39.5,35.2,30.6,76,58,42,30.06,29.86,22,8,22,0.00
2012-10-9,68.0,54.4,44.2,51.2,42.2,31.6,73,64,53,30.04,29.78,15,6,15,0.00
2012-10-10,64.5,49.8,33.1,36.9,33.4,29.7,89,57,31,30.20,30.03,10,2,10,0.00
2012-10-11,71.5,58.7,46.3,58.2,47.8,35.0,80,67,59,30.07,29.92,12,4,12,0.00
2012-10-12,62.1,54.2,49.2,55.9,43.1,33.0,95,67,51,30.20,29.96,14,4,14,0.05
2012-10-13,67.8,64.3,57.0,66.5,62.9,55.6,98,95,85,29.97,29.48,12,4,21,1.10
2012-10-14,68.3,62.3,52.8,62.4,52.4,44.7,95,72,44,29.90,29.43,8,2,23,0.01
2012-10-15,74.8,61.5,48.2,54.9,49.2,44.3,87,66,44,29.91,29.70,5,1,10,0.00
2012-10-16,80.0,69.5,61.8,57.1,53.4,51.3,72,57,44,29.70,29.39,12,4,24,0.00
2012-10-17,66.4,60.5,51.4,58.1,48.6,29.2,92,67,38,29.56,29.31,7,2,22,0.05
2012-10-18,61.1,52.3,47.5,40.6,32.9,28.5,75,48,35,29.60,29.52,10,2,28,0.00
2012-10-19,52.6,49.4,47.4,44.3,40.9,39.1,83,73,66,29.74,29.56,8,2,23,0.00
2012-10-20,69.3,55.7,41.1,46.7,43.5,38.9,93,67,39,29.77,29.61,6,1,16,0.00
2012-10-21,75.1,66.1,54.7,68.0,59.1,44.7,86,78,62,29.70,29.62,9,3,20,0.00
2012-10-22,79.6,73.0,68.8,69.4,67.3,64.8,90,83,71,29.71,29.59,10,4,21,0.00
2012-10-23,78.8,72.8,69.4,68.1,66.7,64.4,88,81,69,29.69,29.58,13,5,25,0.00
2012-10-24,83.2,73.8,68.0,69.5,66.2,61.1,91,78,61,29.68,29.57,15,6,26,0.00
2012-10-25,73.3,52.3,38.1,64.5,45.9,29.8,94,79,67,30.22,29.50,14,5,26,0.08
2012-10-26,45.9,38.8,33.6,31.0,29.1,27.3,81,68,54,30.41,30.22,9,2,20,0.00
2012-10-27,46.1,36.7,27.8,31.6,28.5,25.4,92,73,53,30.36,30.19,3,0,9,0.00
2012-10-28,54.3,42.0,29.5,33.4,30.1,26.6,90,65,41,30.28,30.17,5,0,7,0.00
2012-10-29,56.7,46.2,41.1,35.6,31.1,26.7,64,56,45,30.24,30.04,7,2,16,0.00
2012-10-30,56.9,45.9,38.5,35.4,32.2,30.3,76,60,42,30.03,29.90,6,1,14,0.00
2012-10-31,62.9,48.7,34.2,37.4,33.5,29.5,86,58,37,30.00,29.89,3,0,7,0.00
2012-11-1,76.1,57.4,44.6,46.9,41.1,35.1,72,56,34,29.92,29.76,7,1,16,0.00
2012-11-2,64.7,53.2,43.9,43.3,39.0,34.8,75,60,45,29.88,29.75,7,1,17,0.00
2012-11-3,57.3,46.7,38.4,37.0,34.4,31.9,78,63,45,30.12,29.84,5,1,14,0.00
2012-11-4,60.2,49.6,37.8,43.9,38.5,32.3,83,67,49,30.15,29.92,7,1,13,0.00
2012-11-5,51.4,45.3,41.3,45.2,42.4,39.4,95,90,75,30.04,29.86,7,2,15,0.05
2012-11-6,59.4,48.0,41.1,43.0,36.7,30.8,94,68,39,30.02,29.89,12,1,27,0.00
2012-11-7,56.7,45.6,37.8,36.2,33.3,30.0,77,63,45,30.11,29.97,5,1,12,0.00
2012-11-8,67.8,53.6,40.3,45.2,39.6,33.5,78,61,43,30.03,29.78,10,4,22,0.00
2012-11-9,73.7,62.2,50.7,60.7,52.6,42.1,79,71,62,29.79,29.64,12,5,26,0.00
2012-11-10,72.7,68.7,65.5,59.9,56.7,52.7,76,66,51,29.69,29.55,17,9,33,0.00
2012-11-11,68.3,41.7,27.1,59.5,37.5,21.2,95,85,66,30.17,29.52,13,3,30,1.56
2012-11-12,46.1,34.3,24.7,25.7,21.9,19.2,80,62,41,30.36,30.17,6,1,16,0.01
2012-11-13,53.8,42.6,30.8,35.6,29.0,21.5,73,59,45,30.38,30.25,6,1,12,0.00
2012-11-14,56.8,47.2,42.9,30.3,28.9,26.8,59,49,33,30.28,30.18,7,1,13,0.00
2012-11-15,55.8,47.8,41.5,37.0,32.8,28.4,75,56,46,30.30,30.16,13,3,13,0.00
2012-11-16,59.6,47.4,35.7,39.8,36.3,32.2,88,67,45,30.37,30.27,10,2,10,0.00
2012-11-17,60.6,50.1,41.2,37.4,34.7,30.6,76,57,36,30.31,30.16,20,6,20,0.00
2012-11-18,62.7,52.6,40.3,39.9,35.3,30.9,69,52,42,30.18,30.03,18,8,18,0.00
2012-11-19,64.1,55.7,48.7,50.3,46.1,36.7,85,71,50,30.04,29.94,24,8,24,0.00
2012-11-20,64.8,51.3,39.7,46.5,42.3,36.9,91,73,50,30.12,30.00,10,1,10,0.00
2012-11-21,71.7,57.9,46.6,45.3,42.6,39.9,84,59,35,30.11,29.85,17,7,17,0.00
2012-11-22,69.1,59.4,45.7,53.2,45.3,36.7,71,60,50,30.14,29.74,23,11,23,0.00
2012-11-23,45.5,35.3,26.5,36.6,20.0,13.0,74,54,39,30.42,30.14,23,7,23,0.00
2012-11-24,45.0,35.1,23.4,27.4,19.8,12.5,71,54,42,30.36,29.82,20,6,20,0.00
2012-11-25,55.9,45.8,36.8,34.9,30.1,25.8,73,55,43,29.97,29.81,15,4,15,0.00
2012-11-26,42.3,33.9,24.9,29.1,25.5,17.5,80,71,53,30.40,29.97,18,6,18,0.00
2012-11-27,40.5,29.6,16.5,23.0,17.8,12.2,92,63,43,30.41,30.22,13,3,13,0.00
2012-11-28,53.2,40.8,27.6,34.0,28.3,21.7,80,62,44,30.33,30.08,12,3,12,0.00
2012-11-29,61.9,50.7,41.8,44.8,37.9,31.7,71,62,53,30.08,29.87,21,8,21,0.00
2012-11-30,64.1,53.3,43.7,48.7,41.4,36.4,83,65,46,29.99,29.89,13,4,13,0.00
2012-12-1,67.1,59.3,53.2,59.7,55.2,48.3,95,86,77,29.90,29.67,16,5,16,0.00
2012-12-2,67.0,56.5,46.0,57.3,50.5,44.6,97,82,53,29.93,29.72,13,3,13,0.01
2012-12-3,71.0,63.1,52.7,60.1,53.7,36.5,89,72,52,29.93,29.60,29,12,29,0.00
2012-12-4,63.2,50.7,38.0,36.4,32.0,27.7,78,51,30,30.21,29.93,7,1,7,0.00
2012-12-5,59.0,49.6,39.0,34.7,30.9,27.2,64,49,36,30.24,29.92,18,6,18,0.00
2012-12-6,53.8,48.4,43.6,44.9,39.6,33.9,84,72,57,29.91,29.77,20,4,20,0.00
2012-12-7,49.0,45.7,42.8,43.7,42.1,40.0,93,87,82,29.86,29.75,7,2,7,0.00
2012-12-8,43.4,40.7,37.9,40.3,37.2,35.1,95,88,76,29.91,29.79,12,3,12,0.01
2012-12-9,43.4,35.6,21.0,40.8,29.9,12.2,96,81,60,30.02,29.74,21,6,21,0.01
2012-12-10,30.6,23.5,19.0,18.6,13.3,10.5,76,65,54,30.07,29.96,20,5,20,0.00
2012-12-11,46.6,33.1,21.5,24.4,17.3,10.3,62,53,40,30.07,29.95,12,4,12,0.00
2012-12-12,49.4,39.9,33.1,21.4,18.1,14.2,58,42,26,30.15,30.03,27,10,27,0.00
2012-12-13,55.9,47.3,39.0,28.2,25.2,17.6,50,42,33,30.07,29.98,22,7,22,0.00
2012-12-14,52.3,47.0,41.4,41.6,31.8,26.3,94,56,47,30.01,29.60,25,10,25,0.33
2012-12-15,53.4,48.2,41.7,46.6,44.0,38.8,94,85,76,29.64,29.40,23,8,23,0.07
2012-12-16,41.6,36.2,32.8,38.8,34.7,31.3,96,94,90,29.72,29.62,10,2,10,0.01
2012-12-17,48.5,38.8,34.0,37.7,34.0,31.6,95,83,65,29.72,29.60,13,3,13,0.00
2012-12-18,56.9,46.1,39.0,37.0,34.8,32.8,80,66,44,29.80,29.52,20,6,20,0.00
2012-12-19,41.9,40.0,37.0,39.5,34.7,31.6,95,82,74,29.80,29.34,20,6,20,0.41
2012-12-20,37.0,27.2,22.7,35.6,24.0,16.5,95,88,76,30.20,29.31,33,12,33,0.07
2012-12-21,40.8,29.5,18.2,23.6,18.7,14.7,87,66,40,30.31,30.16,7,2,7,0.05
2012-12-22,53.8,38.9,28.1,31.3,24.4,17.3,73,57,38,30.16,29.85,13,4,13,0.00
2012-12-23,38.0,29.2,23.1,27.3,23.7,20.9,91,80,64,29.94,29.83,12,3,12,0.00
2012-12-24,25.5,20.8,18.0,21.6,15.6,13.0,89,80,67,30.12,29.89,16,6,16,0.00
2012-12-25,20.8,17.7,12.8,15.8,12.3,6.9,89,79,64,30.27,30.10,17,9,17,0.00
2012-12-26,27.8,18.2,9.8,16.0,11.1,5.9,84,74,59,30.23,30.12,13,4,13,0.00
2012-12-27,37.2,28.2,19.9,25.3,20.6,14.3,84,73,60,30.13,29.87,15,4,15,0.00
2012-12-28,31.4,28.4,23.0,26.3,22.6,16.0,83,79,74,30.02,29.87,18,4,18,0.00
2012-12-29,35.5,26.7,18.9,21.0,17.9,14.3,83,70,52,30.26,30.02,15,4,15,0.00
2012-12-30,29.0,28.9,28.7,20.8,20.7,20.4,71,71,71,30.25,30.25,7,4,7,0.00